User: anonymous   Login
Location: Rowland
(34.5359°N, 79.2929°W)
Time: 00:39:15
(UTC+00:00)
Language:

Explorer 7 - Orbit

View from above orbital plane
View from above orbital plane
View from above satellite
View from above satellite

Ground track
Ground track

The orbit data is extracted from the following two-line orbital elements,

1 00022U 59009A   24109.55449176  .00010422  00000-0  62559-3 0  9993
2 00022  50.2802 337.8202 0115491 236.7518 122.2323 15.05957379680416
Epoch (UTC): 18 April 2024 13:18:28
Eccentricity: 0.0115491
inclination: 50.2802°
perigee height: 468 km
apogee height: 628 km
right ascension of ascending node: 337.8202°
argument of perigee: 236.7518°
revolutions per day: 15.05957379
mean anomaly at epoch: 122.2323°
orbit number at epoch: 68041

The dashed part of the orbit path shows where the satellite is in the earth's shadow,  

DLR